| time (UTC) | temp F | wind direction | speed MPH | gust MPH | rain 1hr in | rain 24hr in | rain mn in | humidity % | barometer mb |
| 20260509191539 | 67 | 321 | 1.0 | 3.0 | 0.00 | 0.00 | 0.00 | 62 | 1019.4 |
| 20260509190040 | 67 | 0 | 0.0 | 1.0 | 0.00 | 0.00 | 0.00 | 64 | 1019.3 |
| 20260509184552 | 67 | 0 | 0.0 | 2.0 | 0.00 | 0.00 | 0.00 | 61 | 1019.7 |
| 20260509183054 | 67 | 0 | 1.0 | 4.0 | 0.00 | 0.00 | 0.00 | 63 | 1019.6 |
| 20260509181538 | 66 | 0 | 0.0 | 3.0 | 0.00 | 0.00 | 0.00 | 63 | 1019.9 |
| 20260509180052 | 65 | 129 | 1.0 | 3.0 | 0.00 | 0.00 | 0.00 | 64 | 1020.0 |
| 20260509174546 | 63 | 0 | 0.0 | 3.0 | 0.00 | 0.00 | 0.00 | 67 | 1020.1 |
| 20260509173053 | 62 | 0 | 0.0 | 3.0 | 0.00 | 0.00 | 0.00 | 70 | 1020.3 |
| 20260509171543 | 61 | 0 | 0.0 | 2.0 | 0.00 | 0.00 | 0.00 | 72 | 1020.4 |
| 20260509170038 | 60 | 0 | 0.0 | 3.0 | 0.00 | 0.00 | 0.00 | 74 | 1020.3 |
| 20260509164537 | 58 | 143 | 1.0 | 3.0 | 0.00 | 0.00 | 0.00 | 78 | 1020.5 |
| 20260509163043 | 57 | 156 | 1.0 | 3.0 | 0.00 | 0.00 | 0.00 | 80 | 1020.6 |
| 20260509161553 | 55 | 0 | 0.0 | 2.0 | 0.00 | 0.00 | 0.00 | 83 | 1020.8 |
| 20260509160042 | 54 | 129 | 0.0 | 1.0 | 0.00 | 0.00 | 0.00 | 85 | 1020.8 |
| 20260509154547 | 52 | 0 | 0.0 | 1.0 | 0.00 | 0.00 | 0.00 | 88 | 1021.0 |
| 20260509153052 | 50 | 0 | 0.0 | 0.0 | 0.00 | 0.00 | 0.00 | 91 | 1021.0 |
| 20260509151537 | 48 | 0 | 0.0 | 1.0 | 0.00 | 0.00 | 0.00 | 94 | 1021.1 |
| 20260509150048 | 46 | 0 | 0.0 | 0.0 | 0.00 | 0.00 | 0.00 | 95 | 1021.4 |
| 20260509144546 | 45 | 0 | 0.0 | 0.0 | 0.00 | 0.00 | 0.00 | 95 | 1021.4 |
| 20260509143043 | 44 | 0 | 0.0 | 2.0 | 0.00 | 0.00 | 0.00 | 95 | 1021.4 |
| 20260509141543 | 43 | 0 | 0.0 | 1.0 | 0.00 | 0.00 | 0.00 | 95 | 1021.3 |
| 20260509140059 | 42 | 0 | 0.0 | 1.0 | 0.00 | 0.00 | 0.00 | 95 | 1021.0 |
| 20260509134538 | 42 | 0 | 0.0 | 2.0 | 0.00 | 0.00 | 0.00 | 95 | 1021.2 |
| 20260509133041 | 41 | 302 | 1.0 | 2.0 | 0.00 | 0.00 | 0.00 | 95 | 1021.0 |
| 20260509131537 | 41 | 306 | 0.0 | 4.0 | 0.00 | 0.00 | 0.00 | 95 | 1021.1 |
| 20260509130043 | 41 | 314 | 0.0 | 3.0 | 0.00 | 0.00 | 0.00 | 95 | 1021.0 |
| 20260509124549 | 41 | 0 | 0.0 | 3.0 | 0.00 | 0.00 | 0.00 | 94 | 1021.2 |
| 20260509123039 | 42 | 293 | 1.0 | 3.0 | 0.00 | 0.00 | 0.00 | 95 | 1021.3 |
| 20260509121541 | 41 | 0 | 0.0 | 2.0 | 0.00 | 0.00 | 0.00 | 95 | 1021.4 |
| 20260509120046 | 42 | 0 | 0.0 | 3.0 | 0.00 | 0.00 | 0.00 | 95 | 1021.6 |
| 20260509114541 | 42 | 289 | 0.0 | 1.0 | 0.00 | 0.00 | 0.00 | 94 | 1021.7 |
| 20260509113041 | 42 | 0 | 0.0 | 1.0 | 0.00 | 0.00 | 0.00 | 94 | 1021.7 |
| 20260509111538 | 43 | 307 | 0.0 | 4.0 | 0.00 | 0.00 | 0.00 | 94 | 1021.7 |
| 20260509110040 | 43 | 302 | 1.0 | 3.0 | 0.00 | 0.00 | 0.00 | 94 | 1021.7 |
| 20260509104544 | 42 | 295 | 1.0 | 1.0 | 0.00 | 0.00 | 0.00 | 94 | 1021.9 |
| 20260509103047 | 43 | 0 | 0.0 | 1.0 | 0.00 | 0.00 | 0.00 | 94 | 1021.9 |
| 20260509101540 | 44 | 283 | 0.0 | 2.0 | 0.00 | 0.00 | 0.00 | 94 | 1022.1 |
| 20260509100041 | 44 | 283 | 0.0 | 2.0 | 0.00 | 0.00 | 0.00 | 94 | 1022.1 |
| 20260509094553 | 44 | 300 | 0.0 | 1.0 | 0.00 | 0.00 | 0.00 | 93 | 1022.1 |
| 20260509093040 | 44 | 0 | 0.0 | 2.0 | 0.00 | 0.00 | 0.00 | 93 | 1022.1 |
| 20260509091550 | 45 | 0 | 0.0 | 1.0 | 0.00 | 0.00 | 0.00 | 93 | 1022.2 |
| 20260509090239 | 45 | 0 | 0.0 | 1.0 | 0.00 | 0.00 | 0.00 | 93 | 1022.3 |
| 20260509084543 | 45 | 302 | 0.0 | 1.0 | 0.00 | 0.00 | 0.00 | 92 | 1022.4 |
| 20260509083041 | 46 | 0 | 0.0 | 2.0 | 0.00 | 0.00 | 0.00 | 91 | 1022.5 |
| 20260509081538 | 47 | 293 | 1.0 | 3.0 | 0.00 | 0.00 | 0.00 | 90 | 1022.6 |
| 20260509080045 | 48 | 0 | 0.0 | 1.0 | 0.00 | 0.00 | 0.00 | 90 | 1022.6 |
| 20260509074602 | 49 | 0 | 0.0 | 1.0 | 0.00 | 0.00 | 0.00 | 88 | 1022.6 |
| 20260509073100 | 49 | 0 | 0.0 | 0.0 | 0.00 | 0.00 | 0.00 | 89 | 1022.7 |
| 20260509071543 | 50 | 290 | 0.0 | 2.0 | 0.00 | 0.00 | 0.00 | 88 | 1022.7 |
| 20260509070047 | 50 | 0 | 0.0 | 2.0 | 0.00 | 0.00 | 0.00 | 88 | 1022.7 |
| 20260509064539 | 50 | 290 | 0.0 | 1.0 | 0.00 | 0.00 | 0.00 | 87 | 1022.7 |
| 20260509063053 | 51 | 0 | 0.0 | 0.0 | 0.00 | 0.00 | 0.00 | 87 | 1022.8 |
| 20260509061545 | 51 | 0 | 0.0 | 0.0 | 0.00 | 0.00 | 0.00 | 86 | 1022.7 |
| 20260509054542 | 52 | 283 | 0.0 | 1.0 | 0.00 | 0.00 | 0.00 | 84 | 1022.7 |
| 20260509053053 | 53 | 0 | 0.0 | 2.0 | 0.00 | 0.00 | 0.00 | 83 | 1022.7 |
| 20260509051547 | 53 | 302 | 0.0 | 1.0 | 0.00 | 0.00 | 0.00 | 82 | 1022.6 |
| 20260509050037 | 54 | 0 | 0.0 | 6.0 | 0.00 | 0.00 | 0.00 | 81 | 1022.7 |
| 20260509044543 | 55 | 284 | 4.0 | 8.0 | 0.00 | 0.00 | 0.00 | 80 | 1022.6 |
| 20260509043051 | 55 | 290 | 4.0 | 9.0 | 0.00 | 0.00 | 0.00 | 80 | 1022.5 |
| 20260509041538 | 56 | 290 | 2.0 | 5.0 | 0.00 | 0.00 | 0.00 | 78 | 1022.4 |
| 20260509040104 | 56 | 260 | 2.0 | 8.0 | 0.00 | 0.00 | 0.00 | 76 | 1022.2 |
| 20260509034537 | 57 | 267 | 2.0 | 8.0 | 0.00 | 0.00 | 0.00 | 75 | 1022.3 |
| 20260509033107 | 58 | 283 | 3.0 | 6.0 | 0.00 | 0.00 | 0.00 | 73 | 1022.0 |
| 20260509031548 | 59 | 280 | 4.0 | 9.0 | 0.00 | 0.00 | 0.00 | 71 | 1021.9 |
| 20260509030043 | 60 | 274 | 5.0 | 14.0 | 0.00 | 0.00 | 0.00 | 69 | 1021.9 |
| 20260509024556 | 61 | 275 | 4.0 | 10.0 | 0.00 | 0.00 | 0.00 | 67 | 1021.8 |
| 20260509023046 | 62 | 283 | 4.0 | 9.0 | 0.00 | 0.00 | 0.00 | 65 | 1021.8 |
| 20260509021545 | 62 | 276 | 7.0 | 13.0 | 0.00 | 0.00 | 0.00 | 65 | 1021.7 |
| 20260509020047 | 63 | 278 | 6.0 | 9.0 | 0.00 | 0.00 | 0.00 | 63 | 1021.7 |
| 20260509014539 | 63 | 255 | 6.0 | 11.0 | 0.00 | 0.00 | 0.00 | 63 | 1021.6 |
| 20260509013038 | 63 | 276 | 6.0 | 11.0 | 0.00 | 0.00 | 0.00 | 63 | 1021.7 |
| 20260509011550 | 64 | 285 | 5.0 | 8.0 | 0.00 | 0.00 | 0.00 | 62 | 1021.7 |
| 20260509010039 | 65 | 290 | 5.0 | 11.0 | 0.00 | 0.00 | 0.00 | 60 | 1021.9 |
| 20260509004549 | 64 | 281 | 7.0 | 12.0 | 0.00 | 0.00 | 0.00 | 60 | 1021.9 |
| 20260509003040 | 64 | 265 | 6.0 | 13.0 | 0.00 | 0.00 | 0.00 | 60 | 1021.9 |
| 20260509001539 | 66 | 278 | 5.0 | 6.0 | 0.00 | 0.00 | 0.00 | 58 | 1022.0 |
| 20260509000041 | 66 | 274 | 3.0 | 5.0 | 0.00 | 0.00 | 0.00 | 57 | 1021.9 |
| 20260508234546 | 66 | 271 | 2.0 | 9.0 | 0.00 | 0.00 | 0.00 | 58 | 1022.2 |
| 20260508233047 | 64 | 271 | 6.0 | 13.0 | 0.00 | 0.00 | 0.00 | 59 | 1022.2 |
| 20260508231546 | 66 | 271 | 3.0 | 9.0 | 0.00 | 0.00 | 0.00 | 57 | 1022.0 |
| 20260508230042 | 64 | 262 | 5.0 | 11.0 | 0.00 | 0.00 | 0.00 | 58 | 1022.1 |
| 20260508224549 | 64 | 276 | 5.0 | 9.0 | 0.00 | 0.00 | 0.00 | 58 | 1022.1 |
| 20260508223041 | 64 | 276 | 5.0 | 9.0 | 0.00 | 0.00 | 0.00 | 60 | 1022.1 |
| 20260508221544 | 64 | 269 | 3.0 | 6.0 | 0.00 | 0.00 | 0.00 | 59 | 1022.1 |
| 20260508220047 | 63 | 279 | 4.0 | 12.0 | 0.00 | 0.00 | 0.00 | 58 | 1022.2 |
| 20260508214545 | 63 | 277 | 4.0 | 7.0 | 0.00 | 0.00 | 0.00 | 57 | 1022.3 |
| 20260508213041 | 64 | 273 | 2.0 | 9.0 | 0.00 | 0.00 | 0.00 | 58 | 1022.2 |
| 20260508211543 | 63 | 293 | 3.0 | 13.0 | 0.00 | 0.00 | 0.00 | 59 | 1022.2 |
| 20260508210044 | 62 | 268 | 5.0 | 8.0 | 0.00 | 0.00 | 0.00 | 59 | 1022.2 |
| 20260508204539 | 61 | 262 | 1.0 | 14.0 | 0.00 | 0.00 | 0.00 | 62 | 1022.0 |
| 20260508203040 | 61 | 304 | 2.0 | 6.0 | 0.00 | 0.00 | 0.00 | 61 | 1022.2 |
| 20260508201544 | 60 | 285 | 3.0 | 7.0 | 0.00 | 0.00 | 0.00 | 62 | 1022.2 |
| 20260508200043 | 59 | 293 | 3.0 | 9.0 | 0.00 | 0.00 | 0.00 | 63 | 1022.1 |
| 20260508194546 | 59 | 303 | 3.0 | 8.0 | 0.00 | 0.00 | 0.00 | 63 | 1022.3 |
| 20260508193039 | 58 | 0 | 1.0 | 5.0 | 0.00 | 0.00 | 0.00 | 63 | 1022.4 |